This is the latest recevied weather packets stored in our database for station/object K4AMF. If no packets are shown the sender has not sent any weather packets the latest 10 day(s).
| Time | Temp. | Humidity | Pressure | Rain* | Wind** | Luminosity | Snow |
|---|---|---|---|---|---|---|---|
| 1777839907 | 23.33° C | 52% | 1018.6 hPa | 0 mm | - | 521 W/m² | - |
| 1777839605 | 23.89° C | 52% | 1018.5 hPa | 0 mm | - | 537 W/m² | - |
| 1777838090 | 22.78° C | 54% | 1018.6 hPa | 0 mm | - | 643 W/m² | - |
| 1777836570 | 22.78° C | 52% | 1019 hPa | 0 mm | - | 755 W/m² | - |
| 1777835054 | 23.33° C | 51% | 1019.5 hPa | 0 mm | - | 530 W/m² | - |
| 1777833236 | 22.78° C | 54% | 1019.8 hPa | 0 mm | - | 225 W/m² | - |
| 1777832026 | 22.78° C | 55% | 1020 hPa | 0 mm | - | 323 W/m² | - |
| 1777830208 | 22.78° C | 56% | 1020.2 hPa | 0 mm | - | 758 W/m² | - |
| 1777829599 | 22.22° C | 56% | 1020.2 hPa | 0 mm | - | 737 W/m² | - |
| 1777828084 | 21.67° C | 57% | 1020.6 hPa | 0 mm | - | 189 W/m² | - |
| 1777827477 | 21.67° C | 59% | 1020.8 hPa | 0 mm | - | 269 W/m² | - |
| 1777827175 | 21.67° C | 59% | 1020.7 hPa | 0 mm | - | 852 W/m² | - |
| 1777825659 | 21.11° C | 62% | 1020.9 hPa | 0 mm | - | 856 W/m² | - |
| 1777824749 | 21.11° C | 65% | 1020.8 hPa | 0 mm | - | 894 W/m² | - |
| 1777824447 | 20.56° C | 70% | 1021 hPa | 0 mm | - | 849 W/m² | - |
| 1777824142 | 20.56° C | 70% | 1020.8 hPa | 0 mm | - | 836 W/m² | - |
| 1777823839 | 20.56° C | 70% | 1021 hPa | 0 mm | - | 829 W/m² | - |
| 1777822629 | 20° C | 74% | 1020.7 hPa | 0 mm | - | 180 W/m² | - |
| 1777822024 | 20° C | 75% | 1020.8 hPa | 0 mm | - | 199 W/m² | - |
| 1777821419 | 19.44° C | 76% | 1021 hPa | 0 mm | - | 883 W/m² | - |
| 1777820813 | 18.89° C | 77% | 1020.6 hPa | 0 mm | - | 219 W/m² | - |
| 1777819903 | 18.89° C | 78% | 1021 hPa | 0 mm | - | 413 W/m² | - |
| 1777818085 | 18.89° C | 80% | 1020.7 hPa | 0 mm | - | 635 W/m² | - |
| 1777817175 | 17.78° C | 82% | 1020.6 hPa | 0 mm | - | 689 W/m² | - |
| 1777816570 | 17.22° C | 83% | 1020.6 hPa | 0 mm | - | 671 W/m² | - |
* Rain latest hour (hover to see other rain measurements)
** Current wind speed in m/s (hover to see current wind gust speed)